Preview of NWS' New Version of Forecast
This preview is not operational and should not be used for support decisions.

Regional Weather Roundup (RWR)

Issued by Gray - Portland, ME (GYX)

                            
000
ASUS41 KGYX 252105
RWRGYX
WEATHER ROUNDUP FOR MAINE AND NEW HAMPSHIRE
NATIONAL WEATHER SERVICE GRAY ME
500 PM EDT FRI MAY 25 2018

MEZ002-005-006-010-012-015-018-020-021-024-026-027-029-252200-
MAINE
  
CITY           SKY/WX    TMP DP  RH WIND       PRES   REMARKS
PORTLAND       PTSUNNY   84  49  29 W12G24    29.67S                  
SANFORD        PTSUNNY   85  50  29 W18       29.70S                  
BAR HARBOR     FAIR      78  54  43 SW17G24   29.59F                  
WISCASSET      CLOUDY    80  54  40 S7        29.65S                  
ROCKLAND       FAIR      76  53  44 SW10G20   29.63F                  
FRYEBURG       CLOUDY    81  51  35 W6        29.70S                  
LEWISTONAUBURN CLOUDY    82  53  36 W9        29.67R                  
AUGUSTA        CLOUDY    84  52  33 W20G28    29.64S                  
WATERVILLE     FAIR      83  55  38 W10G18    29.60S                  
BANGOR         PTSUNNY   85  49  28 W10G29    29.57S                  
GREENVILLE       N/A     79  51  37 W8G21     29.58F                  
MILLINOCKET    FAIR      84  49  29 W14G23    29.52F                  
HOULTON        LGT RAIN  73  59  61 NE10      29.48R                  
PRESQUE ISLE   FAIR      69  56  62 SE3       29.52                   
FRENCHVILLE    PTSUNNY   74  48  39 NW20G28   29.50F                  
CARIBOU        FAIR      70  57  63 S6        29.50F                  
$$

NHZ002-005-008-009-011-012-014-252200-
NEW HAMPSHIRE
  
CITY           SKY/WX    TMP DP  RH WIND       PRES   REMARKS
PORTSMOUTH     PTSUNNY   85  44  23 W14G25    29.69F                  
ROCHESTER      FAIR      87  50  27 W8G25     29.70F                  
NASHUA         PTSUNNY   84  45  25 W12G17    29.75F                  
MANCHESTER     CLOUDY    86  43  22 W7        29.72F                  
CONCORD        PTSUNNY   84  49  29 W10       29.73F                  
LACONIA        CLOUDY    81  49  32 W10G22    29.73S                  
PLYMOUTH       CLOUDY    80  46  29 SW3       29.71F                  
BERLIN         CLOUDY    77  53  43 W13G22    29.71F                  
WHITEFIELD     CLOUDY    75  54  47 W8        29.73F                  
JAFFREY        PTSUNNY   85  42  22 SW15G22   29.80F                  
KEENE          PTSUNNY   85  46  25 W12G17    29.77F                  
LEBANON        PTSUNNY   81  49  32 SW7       29.73F                  
MT WASHINGTON  CLOUDY    48  46  93 W41G53      N/A                   
$$

VTZ005-007-008-252200-
VERMONT
  
CITY           SKY/WX    TMP DP  RH WIND       PRES   REMARKS
ST JOHNSBURY     N/A     76  53  44 MISG      29.71S                  
MONTPELIER     CLOUDY    74  54  49 W10G17    29.79F                  
BURLINGTON     PTSUNNY   79  55  43 W7        29.72F                  
$$

MAZ007-012-024-CTZ003-RIZ002-NYZ038-NYZ072-252200-
SOUTHERN NEW ENGLAND AND NY
  
CITY           SKY/WX    TMP DP  RH WIND       PRES   REMARKS
BOSTON         CLOUDY    87  46  24 SW17G28   29.74F                  
WORCESTER      FAIR      82  50  32 SW18G25   29.81F                  
NANTUCKET      FAIR      59  55  87 SW18      29.86F                  
PROVIDENCE     PTSUNNY   83  55  38 SW17G31   29.80F                  
HARTFORD       FAIR      88  48  25 SW16G26   29.79F                  
ALBANY         PTSUNNY   85  47  26 W14G23    29.79F                  
NEW YORK CITY  PTSUNNY   88  52  29 SW17G28   29.84F                  
$$

ANZ081-ANZ082-ANZ150-NHZ014-MEZ023>029-252200-
COASTAL MARINE OBSERVATIONS
  
STATION/POSITION TIME  TEMP    WIND        PRES    WAVE
                       AIR SEA DIR/SP/G            HT/PER
                 (UTC) (F)     (DEG/KT/KT) (MB)    (FT/S)
MOUNT DESERT ROC 2100   58     220/ 28/ 29 1003.1F
JEFFREYS LEDGE   2036      54                N/A     2/ 4
CASHES LEDGE BUO 2050   62 51              1005.2F   4/ 6
$$

.............KEY..............
   WCI - WIND CHILL
   TC  - TEMPERATURE IN CELSIUS
   VSB - VISIBILITY IN MILES
   HX  - HEAT INDEX
   FAIR- INDICATES FEW OR NO CLOUDS BELOW 12,000 FT, WITH NO 
         SIGNIFICANT WEATHER AND/OR OBSTRUCTIONS TO VISIBILITY.